User: anonymous   Login
Location: Mentone
(34.5413°N, 85.5351°W)
Time: 12:12:58
(UTC-05:00)
Language:

Centaur AC-72 - Orbit

View from above orbital plane
View from above orbital plane
View from above satellite
View from above satellite

Ground track
Ground track

The orbit data is extracted from the following two-line orbital elements,

1 21907U 92013B   15213.88839422 -.00000001  00000-0  00000+0 0  9991
2 21907 018.9218 127.7112 6964355 113.6872 353.1128 02.25608222192810
Epoch (UTC): 01 August 2015 21:19:17
Eccentricity: 0.6964355
inclination: 18.9218°
perigee height: 1076 km
apogee height: 35280 km
right ascension of ascending node: 127.7112°
argument of perigee: 113.6872°
revolutions per day: 2.25608222
mean anomaly at epoch: 353.1128°
orbit number at epoch: 19281

The dashed part of the orbit path shows where the satellite is in the earth's shadow,  

DLR